Location: Martley
(52.2333°N, 2.3667°W)
Time: 17:21:24
(UTC+00:00)

Cosmos 1340 - Pass Details

Date: 11 December 2019
Orbit: 502 x 506 km, 81.2° (Epoch: 26 January)

Event Time Altitude Azimuth Distance (km) Brightness Sun altitude
Rises 05:59:42 0° 195° (SSW) 2,590 6.3 -18.4°
Reaches altitude 10° 06:01:49 10° 196° (SSW) 1,712 5.3 -18.1°
Maximum altitude 06:05:34 78° 282° (WNW) 522 2.5 -17.5°
Drops below altitude 10° 06:09:23 10° 11° (N) 1,730 5.3 -17.0°
Sets 06:11:31 0° 12° (NNE) 2,621 6.2 -16.6°
